Weather History for Punta Gorda, FL

Change the Weather History Date:

Wednesday, November 28, 2012

  Actual Average Record
Temperature  
Mean Temperature 68 °F -  
Max Temperature 78 °F 76 °F 84 °F (1997)
Min Temperature 59 °F 53 °F 37 °F (2008)
Cooling Degree Days 4    
Growing Degree Days 18 (Base 50)    
Moisture  
Dew Point 61 °F    
Average Humidity 84    
Maximum Humidity 100    
Minimum Humidity 54    
Precipitation  
Precipitation 0.01 in - - ()
Sea Level Pressure  
Sea Level Pressure 30.21 in    
Wind  
Wind Speed 4 mph (NE)    
Max Wind Speed 12 mph    
Max Gust Speed -    
Visibility 5 miles    
Events Fog    
Averages and records for this station are not official NWS values.
T = Trace of Precipitation, MM = Missing Value Source: NWS Daily Summary

Daily Weather History Graph

Daily Weather History Graph

Search for Another Location

Airport:

Trip Planner

Search our weather history database for the weather conditions in past years. The results will help you decide how hot, cold, wet, or windy it might be!

Date:

Astronomy

Nov. 28, 2012 Rise Set
Actual Time 6:57 AM EST 5:34 PM EST
Civil Twilight 6:32 AM EST 5:59 PM EST
Nautical Twilight 6:04 AM EST 6:27 PM EST
Astronomical Twilight 5:36 AM EST 6:55 PM EST
Moon 5:48 PM EST (11/28) 6:54 AM EST (11/28)
Length of Visible Light 11h 26m
Length of Day
10h 36m
Full, 100% of the Moon is Illuminated
Nov 28
Full
Dec 6
Last Quarter
Dec 13
New
Dec 20
First Quarter
Dec 28
Full

Hourly Weather History & Observations

Time (EST) Temp. Dew Point Humidity Pressure Visibility Wind Dir Wind Speed Gust Speed Precip Events Conditions
12:53 AM 64.0 °F 61.0 °F 90% 30.15 in 10.0 mi Calm Calm - N/A   Mostly Cloudy
1:42 AM 62.6 °F 62.6 °F 100% 30.16 in 1.8 mi Calm Calm - N/A   Partly Cloudy
1:44 AM 62.6 °F 60.8 °F 94% 30.16 in 0.8 mi Calm Calm - N/A   Partly Cloudy
1:53 AM 63.0 °F 61.0 °F 93% 30.16 in 0.8 mi SSW 3.5 mph - N/A   Mist
2:53 AM 62.1 °F 61.0 °F 96% 30.15 in 0.5 mi Calm Calm - N/A Fog Fog
3:53 AM 63.0 °F 61.0 °F 93% 30.14 in 0.2 mi NNW 3.5 mph - 0.01 in Fog Fog
4:53 AM 61.0 °F 60.1 °F 97% 30.15 in 0.2 mi NE 3.5 mph - N/A Fog Fog
5:53 AM 60.1 °F 59.0 °F 96% 30.16 in 0.2 mi NNE 6.9 mph - N/A Fog Fog
6:53 AM 62.1 °F 61.0 °F 96% 30.18 in 0.2 mi Calm Calm - N/A Fog Fog
7:53 AM 64.0 °F 62.1 °F 93% 30.19 in 0.2 mi Calm Calm - N/A Fog Fog
8:53 AM 64.9 °F 63.0 °F 93% 30.22 in 0.2 mi North 5.8 mph - N/A Fog Fog
9:44 AM 66.2 °F 64.4 °F 94% 30.24 in 1.0 mi North 6.9 mph - N/A   Overcast
9:53 AM 66.0 °F 64.9 °F 96% 30.25 in 0.8 mi NNE 6.9 mph - N/A   Overcast
10:12 AM 66.2 °F 64.4 °F 94% 30.25 in 1.2 mi NNE 8.1 mph - N/A   Overcast
10:26 AM 66.2 °F 64.4 °F 94% 30.25 in 3.0 mi NNE 9.2 mph - N/A   Overcast
10:29 AM 66.2 °F 64.4 °F 94% 30.25 in 4.0 mi NE 9.2 mph - N/A   Overcast
10:53 AM 68.0 °F 64.0 °F 87% 30.25 in 5.0 mi NNE 8.1 mph - N/A   Overcast
11:53 AM 68.0 °F 63.0 °F 84% 30.24 in 5.0 mi NNE 6.9 mph - N/A   Haze
12:19 PM 71.6 °F 62.6 °F 73% 30.22 in 8.0 mi NE 8.1 mph - N/A   Overcast
12:43 PM 73.4 °F 62.6 °F 69% 30.21 in 9.0 mi NE 10.4 mph - N/A   Mostly Cloudy
12:53 PM 75.0 °F 63.0 °F 66% 30.21 in 10.0 mi NE 11.5 mph - N/A   Mostly Cloudy
1:53 PM 77.0 °F 61.0 °F 58% 30.19 in 10.0 mi NE 9.2 mph - N/A   Scattered Clouds
2:53 PM 78.1 °F 60.1 °F 54% 30.18 in 10.0 mi NE 11.5 mph - N/A   Mostly Cloudy
3:53 PM 75.0 °F 57.9 °F 55% 30.19 in 10.0 mi NE 11.5 mph - N/A   Mostly Cloudy
4:53 PM 73.0 °F 59.0 °F 61% 30.19 in 10.0 mi ENE 9.2 mph - N/A   Overcast
5:53 PM 71.1 °F 59.0 °F 66% 30.21 in 10.0 mi ENE 9.2 mph - N/A   Overcast
6:53 PM 66.9 °F 57.9 °F 73% 30.22 in 10.0 mi NE 6.9 mph - N/A   Scattered Clouds
7:53 PM 64.9 °F 57.9 °F 78% 30.24 in 10.0 mi NNE 6.9 mph - N/A   Clear
8:53 PM 62.1 °F 57.0 °F 84% 30.25 in 10.0 mi NNE 6.9 mph - N/A   Clear
9:53 PM 60.1 °F 55.9 °F 86% 30.26 in 10.0 mi NNE 4.6 mph - N/A   Clear
10:53 PM 59.0 °F 55.9 °F 90% 30.26 in 8.0 mi NE 6.9 mph - N/A   Clear
11:53 PM 59.0 °F 55.0 °F 87% 30.25 in 8.0 mi NNE 9.2 mph - N/A   Clear